www.pogodaiklimat.ru

Погода и климат >> Архив погоды >> Россия >> Якутия >> Верхоянск


АРХИВ ПОГОДЫ в Верхоянске

Время (UTC), дата Ветер
(напр.,м/с)
 
Видим.   Явления Облачность Т
(С)
Тd
(С)
f
(%)
Тe
(С)
Тes
(С)
Комфортность P
(гПа)
Po
(гПа)
Тmin
(С)
Tmax
(С)
R
(мм)
R24
(мм)
S
(см)
06 17.02 штиль 0 20 км слаб. снег 10/0
[Cs]
-32.6 -35.5 75 -33 -32 опасность
обморожения
1010.5 991.1
09 17.02 СВ 1 20 км {снег} 4/0
[Ci fib]
-38.6 -41.4 75 -44 -44 опасность
обморожения
1012.1 992.1 -29.9 0.4
12 17.02 штиль 0 20 км {снег} 3/0
[Ci fib]
-43.7 -46.3 75 -44 -44 опасность
обморожения
1012.8 992.4
15 17.02 штиль 0 20 км 3/0
[Ci fib]
-45.0 -47.8 73 -45 -45 опасность
обморожения
1013.3 992.7
18 17.02 штиль 0 10 км дым 3/0
[Ci fib]
-45.9 -48.6 74 -46 -46 опасность
обморожения
1013.6 992.9
21 17.02 штиль 0 10 км дым ясно -46.5 -49.6 70 -47 -47 опасность
обморожения
1014.8 994.0 -46.7 15
00 18.02 штиль 0 20 км дым 1/0
[Ac trans]
-46.4 -48.6 78 -46 -46 опасность
обморожения
1015.5 994.8 -47.1
03 18.02 ЮЗ 1 20 км дым ясно -39.4 -42.3 74 -45 -44 опасность
обморожения
1015.6 995.5
06 18.02 штиль 0 50 км ясно -33.9 -36.8 75 -34 -34 опасность
обморожения
1015.8 996.2
09 18.02 штиль 0 20 км ясно -41.2 -43.8 76 -41 -41 опасность
обморожения
1017.6 997.3 -33.2
12 18.02 штиль 0 20 км ясно -44.2 -47.0 73 -44 -44 опасность
обморожения
1018.9 998.3
15 18.02 штиль 0 20 км ясно -45.0 -47.8 73 -45 -45 опасность
обморожения
1019.5 998.8
18 18.02 штиль 0 4000 м дымка ясно -46.6 -49.6 71 -47 -47 опасность
обморожения
1020.0 999.1
21 18.02 штиль 0 10 км дым ясно -46.8 -49.6 73 -47 -47 опасность
обморожения
1020.4 999.5 -46.8 15
00 19.02 штиль 0 20 км дым ясно -46.4 -48.6 78 -46 -46 опасность
обморожения
1020.7 999.9
03 19.02 Ю 1 20 км дым ясно -39.7 -42.3 76 -45 -44 опасность
обморожения
1019.7 999.5
06 19.02 Ю 1 50 км ясно -35.4 -39.0 69 -40 -40 опасность
обморожения
1018.9 999.1
09 19.02 штиль 0 20 км ясно -40.4 -43.3 73 -40 -40 опасность
обморожения
1019.4 999.1 -34.8
12 19.02 штиль 0 20 км ясно -44.0 -47.0 72 -44 -44 опасность
обморожения
1020.6 1000.0
15 19.02 штиль 0 20 км ясно -45.5 -47.8 77 -46 -46 опасность
обморожения
1021.6 1000.9
18 19.02 штиль 0 20 км ясно -46.1 -48.6 76 -46 -46 опасность
обморожения
1022.3 1001.5
21 19.02 З 1 20 км 4/0
[Ci fib]
-45.5 -47.8 77 -51 -51 опасность
обморожения
1023.8 1003.0 -46.4 15
00 20.02 штиль 0 20 км дым ясно -45.8 -48.6 73 -46 -46 опасность
обморожения
1025.1 1004.2 -46.4
03 20.02 ЮЗ 1 20 км дым ясно -38.3 -41.6 71 -43 -42 опасность
обморожения
1024.9 1004.7
06 20.02 З 1 50 км ясно -35.1 -38.7 69 -40 -39 опасность
обморожения
1024.6 1004.7
09 20.02 штиль 0 20 км ясно -39.7 -42.3 76 -40 -40 опасность
обморожения
1025.9 1005.5 -34.5
12 20.02 штиль 0 20 км ясно -44.3 -47.0 74 -44 -44 опасность
обморожения
1026.6 1005.9
15 20.02 штиль 0 20 км ясно -45.6 -48.6 71 -46 -46 опасность
обморожения
1027.2 1006.3
18 20.02 штиль 0 20 км ясно -47.1 -49.6 75 -47 -47 опасность
обморожения
1027.3 1006.3
21 20.02 З 1 20 км ясно -47.6 -50.6 71 -54 -54 опасность
обморожения
1027.4 1006.3 -47.6 15
00 21.02 З 1 50 км ясно -47.1 -49.6 75 -53 -53 опасность
обморожения
1027.8 1006.8 -48.1
03 21.02 штиль 0 50 км ясно -39.8 -42.8 73 -40 -38 опасность
обморожения
1026.5 1006.1
06 21.02 ЮЗ 1 50 км 1/0
[Ci fib]
-36.2 -39.7 70 -41 -41 опасность
обморожения
1025.0 1005.0
09 21.02 штиль 0 20 км ясно -40.9 -43.8 73 -41 -41 опасность
обморожения
1025.1 1004.7 -33.8
12 21.02 штиль 0 10 км дым ясно -45.1 -47.8 74 -45 -45 опасность
обморожения
1024.7 1003.9
15 21.02 СВ 1 10 км дым ясно -47.1 -49.6 75 -53 -53 опасность
обморожения
1024.2 1003.2
18 21.02 штиль 0 10 км дым ясно -47.8 -50.6 73 -48 -48 опасность
обморожения
1023.6 1002.5
21 21.02 З 2 10 км дым 4/0
[Ci fib]
-46.6 -49.6 71 -57 -57 опасность
обморожения
1022.6 1001.7 -48.1 15
00 22.02 З 1 50 км 10/0
[Ac trans Ci fib]
-44.0 -47.0 72 -50 -49 опасность
обморожения
1021.3 1000.7 -47.0
03 22.02 ЮЗ 1 50 км 10/0
[Cs]
-38.9 -41.8 74 -44 -43 опасность
обморожения
1019.5 999.3
06 22.02 ЮЗ 1 50 км 10/0
[Ac As]
-35.0 -38.0 74 -40 -40 опасность
обморожения
1017.7 997.9
09 22.02 ЮЗ 1 10 км слаб. снег 10/0
[Ac trans Cs]
-33.5 -36.6 73 -38 -38 опасность
обморожения
1017.3 997.7 -33.5 0.0
12 22.02 ЮЗ 1 10 км слаб. снег 10/0
[Ac trans Cs]
-34.3 -37.1 76 -39 -39 опасность
обморожения
1018.0 998.3
15 22.02 З 3 20 км {снег} 3/0
[Ci fib]
-36.7 -39.4 76 -48 -48 опасность
обморожения
1018.9 998.9
18 22.02 штиль 0 20 км {снег} ясно -42.7 -45.6 73 -43 -43 опасность
обморожения
1020.5 1000.0
21 22.02 штиль 0 20 км ясно -45.2 -47.8 75 -45 -45 опасность
обморожения
1021.8 1001.1 -45.2 0.0 15
00 23.02 штиль 0 20 км дым ясно -45.8 -48.6 73 -46 -45 опасность
обморожения
1022.3 1001.5 -45.9
03 23.02 ЮЗ 1 50 км ясно -37.7 -40.5 75 -43 -41 опасность
обморожения
1020.9 1000.8
06 23.02 штиль 0 50 км 6/0
[Ci fib]
-33.0 -36.7 69 -33 -33 опасность
обморожения
1019.6 999.9
09 23.02 штиль 0 20 км 4/0
[Ci fib]
-37.7 -40.5 75 -38 -38 опасность
обморожения
1019.9 999.8 -30.5
12 23.02 штиль 0 20 км 3/0
[Ci fib]
-42.2 -45.0 74 -42 -42 опасность
обморожения
1020.1 999.7
15 23.02 штиль 0 20 км ясно -43.5 -46.3 74 -44 -44 опасность
обморожения
1019.8 999.2
18 23.02 штиль 0 20 км 6/0
[Ci fib]
-42.0 -45.0 72 -42 -42 опасность
обморожения
1019.0 998.6
21 23.02 штиль 0 20 км 10/0
[Cs]
-39.0 -41.8 75 -39 -39 опасность
обморожения
1017.8 997.6 -43.8 15
00 24.02 штиль 0 50 км 10/0
[As op]
-36.8 -39.8 74 -37 -37 опасность
обморожения
1016.4 996.5 -39.8
03 24.02 штиль 0 50 км 10/0
[Cs]
-32.7 -35.8 74 -33 -31 опасность
обморожения
1014.9 995.4

 

Местоположение метеостанции Верхоянск (Якутия, Россия): широта 67.57 долгота 133.40 высота над уровнем моря 136 м.

В архиве по умолчанию представлена погода в Верхоянске за последнюю неделю. Архивные данные за месяц целиком и за предыдущие месяцы, начиная с января 2011 года, Вы можете получить, выбрав интересующий диапазон дат из раскрывающегося списка и нажав кнопку "Ввод!".


*Определитесь, кто Вы:
робот инопланетянин человек

Внимание! Время в таблицах - всемирное. Для получения местного времени необходимо прибавить поправку, которая равна 10 ч.

Смотрите также архив погоды в соседних городах и на ближайших метеорологических станциях:

Погода в Батагае (Якутия, Россия) (52 км)
Погода в Екюччю (Якутия, Россия) (118 км)
Погода в Батагай-Алыте (Якутия, Россия) (129 км)
Погода в Усть-Чарках (Якутия, Россия) (162 км)
Погода в Иэме (Якутия, Россия) (274 км)
Погода в Усть-Куйге (Якутия, Россия) (284 км)
Погода в Себян-Кюеле (Якутия, Россия) (294 км)
Погода в Депутатском (Якутия, Россия) (329 км)
Погода в Юбилейной (Якутия, Россия) (373 км)
Погода в Джарджане (Якутия, Россия) (409 км)

Пояснения к столбцам:

Ветер - указаны скорость ветра в м/с - средняя за 10 мин, порывы в срок и между сроками (в фигурных скобках) и направление, откуда дует ветер: С - северный, СВ - северо-восточный, В - восточный, ЮВ - юго-восточный, Ю - южный, ЮЗ - юго-западный, З - западный, СЗ - северо-западный.
Видимость - горизонтальная дальность видимости в метрах или километрах. При видимости от 1 до 10 км при отсутствии осадков обычно наблюдается дымка, при ухудшении видимости до 1 км и менее - туман. В сухую погоду видимость может ухудшаться дымом, пылью или мглою.
Явления - указаны атмосферные явления, наблюдавшиеся в срок или в последний час перед сроком; фигурными скобками обозначены явления, наблюдавшиеся между сроками (за 1-3 часа до срока); квадратными скобками обозначены град или гололедные отложения с указанием их диаметра в мм.
Облачность - указаны через наклонную черту общая и нижняя облачность в баллах и высота нижней границы облаков в метрах; квадратными скобками обозначены формы облаков: Ci - перистые, Cs - перисто-слоистые, Cc - перисто-кучевые, Ac - высококучевые, As - высокослоистые, Sc - слоисто-кучевые, Ns - слоисто-дождевые, Cu - кучевые, Cb - кучево-дождевые. Подробнее классификацию облаков см. в Атласе облаков (PDF).
T - Температура воздуха - температура, измеренная на высоте 2 м над землей.
Td - Температура точки росы - температура, при понижении до которой содержащийся в воздухе водяной пар достигнет насыщения.
f - Относительная влажность воздуха - влажноcть воздуха, измеренная на высоте 2 м над землей.
Te - Эффективная температура - температура, которую ощущает одетый по сезону человек в тени. Характеристика душности погоды. При расчете учитывается влияние влажности воздуха и скорости ветра на теплоощущения человека.
Tes - Эффективная температура на солнце - температура, которую ощущает человек, с поправкой на солнечный нагрев. Характеристика знойности погоды. Зависит от высоты солнца над горизонтом, облачности и скорости ветра. Ночью, в пасмурную погоду, а также при ветре 12 м/с и более поправка равна нулю.
P - Атмосферное давление - приведенное к уровню моря атмосферное давление.
Po - Атмосферное давление - измеренное на уровне метеостанции атмосферное давление.
Tmin - Минимальная температура - минимум температуры воздуха на высоте 2 м над землей.
Tmax - Максимальная температура - максимум температуры воздуха на высоте 2 м над землей.
R - Количество осадков - Количество выпавших осадков за период времени, мм. При наведении курсора мыши на число - период времени, за который выпало указанное количество осадков.
R24 - Количество осадков - Количество выпавших осадков за 24 часа, мм.
S - Снежный покров - Высота снежного покрова, см. При наведении курсора мыши на число - состояние снежного покрова и степень покрытия местности в баллах.